Location: Newark
(38.6500°N, 6.7333°W)
Time: 15:21:40
(UTC+00:00)

N. Korean satellite - Visible Passes

Search period start: 16 October 2019 00:00
Search period end: 26 October 2019 00:00
Orbit: 455 x 508 km, 97.2° (Epoch: 15 October)

Date Brightness Start Highest point End Pass type
(mag) Time Alt. Az. Time Alt. Az. Time Alt. Az.
16 Oct 10.4 18:42:02 10° WSW 18:43:21 12° W 18:44:39 10° WNW visible
17 Oct 7.6 06:07:06 10° NNE 06:10:37 53° E 06:14:11 10° S visible
17 Oct 9.3 18:15:02 10° SSW 18:17:54 25° W 18:20:47 10° NW visible
18 Oct 9.3 05:42:16 10° NE 05:45:16 24° E 05:48:17 10° SSE visible
19 Oct 10.3 05:18:25 10° ENE 05:19:50 12° E 05:21:15 10° ESE visible
20 Oct 10.0 18:33:27 10° SW 18:35:28 15° W 18:37:29 10° WNW visible
21 Oct 8.1 05:59:21 10° NNE 06:02:49 42° E 06:06:19 10° S visible
21 Oct 8.7 18:06:57 10° SSW 18:10:02 31° W 18:13:08 10° NNW visible
22 Oct 9.7 05:34:41 10° NE 05:37:26 20° E 05:40:11 10° SE visible
24 Oct 6.9 06:16:39 10° NNE 06:20:19 76° ESE 06:24:00 10° S visible
24 Oct 9.8 18:25:05 10° SW 18:27:33 19° W 18:30:04 10° NW visible
25 Oct 8.7 05:51:37 10° NNE 05:54:59 33° E 05:58:21 10° SSE visible
25 Oct 8.1 17:58:53 10° S 18:02:08 40° W 18:05:26 10° NNW visible
